QPF
0.03 0.03 0.03 0.03 0.02 0.03 0.04 0.04 0.04 0.05 0.05 0.05 0.06 0.05 0.05 0.05 0.05 0.06 0.05 0.05 0.06 0.05 0.04 0.04 0.05 0.06 0.05 0.05 0.06 0.08 0.08 0.08 0.09 0.10 0.09 0.07 0.06 0.05 0.06 0.05 0.05 0.05 0.04
0.03 0.03 0.03 0.03 0.02 0.03 0.03 0.03 0.03 0.04 0.04 0.04 0.05 0.05 0.05 0.05 0.04 0.03 0.03 0.04 0.06 0.04 0.04 0.05 0.03 0.04 0.05 0.05 0.05 0.05 0.06 0.07 0.08 0.08 0.08 0.07 0.06 0.06 0.06 0.06 0.04 0.04 0.04
0.03 0.02 0.02 0.02 0.02 0.02 0.02 0.02 0.03 0.04 0.04 0.04 0.04 0.05 0.06 0.05 0.04 0.03 0.03 0.03 0.04 0.05 0.05 0.05 0.04 0.04 0.04 0.04 0.04 0.05 0.05 0.06 0.08 0.08 0.08 0.06 0.05 0.05 0.06 0.05 0.04 0.05 0.04
0.02 0.01 0.01 0.02 0.02 0.02 0.02 0.03 0.03 0.04 0.04 0.05 0.06 0.06 0.06 0.05 0.04 0.03 0.03 0.03 0.03 0.03 0.04 0.04 0.04 0.04 0.03 0.04 0.04 0.03 0.04 0.05 0.07 0.08 0.08 0.07 0.06 0.05 0.05 0.04 0.04 0.04 0.04
0.02 0.01 0.02 0.02 0.02 0.03 0.03 0.03 0.03 0.03 0.03 0.05 0.05 0.05 0.05 0.04 0.03 0.04 0.03 0.03 0.03 0.03 0.03 0.03 0.03 0.03 0.03 0.03 0.02 0.03 0.04 0.04 0.05 0.07 0.07 0.07 0.06 0.05 0.04 0.04 0.04 0.05 0.06
0.01 0.01 0.02 0.03 0.04 0.04 0.04 0.03 0.03 0.02 0.02 0.03 0.03 0.03 0.03 0.02 0.02 0.02 0.02 0.03 0.03 0.04 0.04 0.03 0.02 0.03 0.03 0.03 0.02 0.02 0.02 0.03 0.04 0.05 0.06 0.06 0.06 0.05 0.05 0.05 0.06 0.06 0.08
0.01 0.02 0.05 0.06 0.08 0.08 0.08 0.06 0.05 0.04 0.03 0.02 0.02 0.03 0.02 0.02 0.01 0.01 0.01 0.02 0.03 0.03 0.04 0.04 0.03 0.03 0.04 0.04 0.04 0.03 0.02 0.02 0.03 0.04 0.04 0.04 0.05 0.05 0.05 0.05 0.05 0.05 0.06
0.01 0.02 0.03 0.05 0.07 0.08 0.09 0.08 0.06 0.05 0.04 0.02 0.02 0.02 0.03 0.02 0.01 0.02 0.02 0.02 0.02 0.02 0.03 0.04 0.05 0.06 0.06 0.06 0.04 0.02 0.02 0.02 0.03 0.03 0.03 0.04 0.05 0.06 0.06 0.06 0.07 0.07 0.08
0.02 0.03 0.04 0.05 0.05 0.05 0.06 0.07 0.06 0.05 0.04 0.03 0.03 0.03 0.04 0.04 0.03 0.03 0.03 0.03 0.03 0.03 0.04 0.04 0.05 0.04 0.04 0.04 0.03 0.03 0.03 0.04 0.04 0.05 0.05 0.07 0.08 0.09 0.07 0.06 0.06 0.06 0.07
0.03 0.03 0.03 0.04 0.05 0.05 0.05 0.05 0.05 0.05 0.05 0.05 0.05 0.05 0.04 0.04 0.04 0.03 0.03 0.03 0.03 0.02 0.02 0.02 0.02 0.02 0.02 0.03 0.02 0.02 0.03 0.03 0.03 0.04 0.04 0.04 0.05 0.06 0.04 0.04 0.04 0.05 0.05
0.03 0.03 0.03 0.04 0.04 0.04 0.03 0.04 0.05 0.05 0.06 0.07 0.06 0.06 0.04 0.04 0.04 0.05 0.04 0.03 0.03 0.02 0.02 0.02 0.02 0.03 0.03 0.03 0.03 0.02 0.03 0.04 0.04 0.04 0.04 0.04 0.04 0.04 0.03 0.03 0.03 0.04 0.04
0.04 0.03 0.03 0.03 0.03 0.02 0.02 0.03 0.05 0.07 0.07 0.06 0.05 0.05 0.04 0.04 0.04 0.03 0.03 0.03 0.03 0.03 0.02 0.02 0.02 0.04 0.04 0.03 0.03 0.03 0.04 0.04 0.04 0.05 0.05 0.04 0.04 0.04 0.03 0.03 0.04 0.04 0.05
0.07 0.06 0.05 0.04 0.03 0.03 0.03 0.04 0.04 0.05 0.05 0.05 0.04 0.04 0.04 0.03 0.02 0.02 0.02 0.02 0.02 0.02 0.02 0.02 0.02 0.03 0.03 0.03 0.03 0.03 0.03 0.04 0.05 0.05 0.04 0.03 0.02 0.03 0.03 0.03 0.03 0.03 0.03
0.09 0.07 0.06 0.05 0.04 0.04 0.05 0.07 0.09 0.10 0.09 0.06 0.04 0.02 0.02 0.03 0.02 0.02 0.02 0.01 0.01 0.01 0.01 0.01 0.01 0.02 0.02 0.02 0.03 0.04 0.05 0.05 0.05 0.04 0.04 0.04 0.04 0.03 0.03 0.02 0.02 0.02 0.02
0.07 0.07 0.06 0.05 0.05 0.05 0.08 0.11 0.10 0.07 0.05 0.04 0.03 0.02 0.02 0.01 0.01 0.02 0.02 0.01 0.01 0.01 0.01 0.02 0.02 0.01 0.01 0.01 0.02 0.02 0.03 0.03 0.03 0.03 0.03 0.03 0.03 0.03 0.02 0.02 0.02 0.01 0.01
0.09 0.09 0.10 0.10 0.11 0.10 0.10 0.08 0.05 0.04 0.04 0.03 0.02 0.02 0.02 0.02 0.02 0.02 0.02 0.02 0.02 0.02 0.02 0.03 0.04 0.04 0.04 0.03 0.03 0.02 0.02 0.01 0.01 0.01 0.01 0.02 0.02 0.01 0.01 0.00 0.00 0.01 0.01
0.07 0.10 0.12 0.13 0.15 0.14 0.11 0.10 0.09 0.07 0.05 0.04 0.03 0.03 0.03 0.02 0.02 0.02 0.02 0.02 0.02 0.02 0.01 0.02 0.02 0.03 0.04 0.05 0.05 0.04 0.03 0.02 0.01 0.01 0.01 0.01 0.02 0.01 0.01 0.01 0.01 0.01 0.01
0.05 0.07 0.09 0.12 0.13 0.11 0.10 0.09 0.10 0.13 0.10 0.07 0.05 0.04 0.03 0.03 0.03 0.03 0.03 0.02 0.02 0.02 0.01 0.02 0.02 0.02 0.02 0.02 0.02 0.03 0.03 0.02 0.02 0.02 0.02 0.02 0.01 0.01 0.01 0.01 0.01 0.01 0.01
0.05 0.06 0.08 0.11 0.14 0.13 0.11 0.10 0.11 0.12 0.14 0.12 0.07 0.05 0.05 0.04 0.04 0.03 0.03 0.02 0.02 0.02 0.02 0.03 0.03 0.03 0.02 0.02 0.03 0.04 0.03 0.03 0.02 0.02 0.01 0.01 0.01 0.01 0.02 0.01 0.01 0.01 0.01
0.11 0.11 0.11 0.10 0.12 0.13 0.12 0.12 0.15 0.19 0.14 0.12 0.08 0.05 0.04 0.04 0.03 0.03 0.03 0.02 0.02 0.01 0.02 0.03 0.04 0.04 0.04 0.04 0.03 0.03 0.03 0.03 0.03 0.02 0.02 0.01 0.01 0.01 0.01 0.01 0.01 0.01 0.02
0.16 0.15 0.15 0.14 0.13 0.12 0.11 0.10 0.10 0.12 0.12 0.10 0.09 0.07 0.06 0.05 0.05 0.03 0.03 0.02 0.02 0.02 0.02 0.03 0.03 0.03 0.02 0.02 0.02 0.02 0.02 0.02 0.02 0.02 0.01 0.01 0.01 0.01 0.01 0.01 0.01 0.01 0.01
0.13 0.15 0.16 0.15 0.14 0.13 0.12 0.11 0.09 0.09 0.08 0.08 0.08 0.07 0.05 0.05 0.05 0.06 0.05 0.04 0.03 0.03 0.03 0.03 0.03 0.02 0.02 0.02 0.01 0.01 0.01 0.01 0.01 0.01 0.01 0.01 0.01 0.01 0.01 0.01 0.01 0.01 0.01
0.08 0.10 0.11 0.10 0.09 0.10 0.10 0.09 0.07 0.06 0.06 0.06 0.06 0.07 0.06 0.05 0.04 0.06 0.06 0.05 0.04 0.03 0.03 0.02 0.02 0.02 0.02 0.01 0.01 0.01 0.02 0.02 0.02 0.02 0.02 0.02 0.02 0.02 0.02 0.02 0.02 0.03 0.03
0.06 0.06 0.07 0.07 0.06 0.06 0.06 0.05 0.05 0.04 0.04 0.04 0.05 0.05 0.05 0.05 0.05 0.06 0.05 0.05 0.05 0.04 0.03 0.02 0.02 0.02 0.01 0.01 0.01 0.01 0.01 0.01 0.02 0.02 0.02 0.03 0.04 0.04 0.04 0.05 0.05 0.06 0.06
0.05 0.05 0.04 0.03 0.03 0.03 0.03 0.03 0.03 0.03 0.04 0.05 0.05 0.05 0.04 0.03 0.04 0.04 0.05 0.05 0.04 0.04 0.03 0.02 0.02 0.02 0.01 0.01 0.01 0.01 0.01 0.02 0.02 0.02 0.02 0.02 0.04 0.05 0.06 0.08 0.09 0.09 0.08
0.06 0.05 0.04 0.03 0.03 0.03 0.04 0.04 0.04 0.04 0.04 0.03 0.03 0.04 0.05 0.03 0.04 0.05 0.04 0.03 0.02 0.02 0.02 0.01 0.01 0.01 0.01 0.02 0.02 0.02 0.02 0.02 0.02 0.03 0.02 0.02 0.03 0.04 0.05 0.05 0.06 0.06 0.06
MSLP
1010.26 1010.71 1011.18 1011.62 1011.98 1012.21 1012.30 1012.25 1012.09 1011.86 1011.61 1011.40 1011.26 1011.20 1011.24 1011.37 1011.58 1011.85 1012.16 1012.50 1012.88 1013.27 1013.68 1014.08 1014.47 1014.82 1015.11 1015.33 1015.45 1015.48 1015.42 1015.28 1015.08 1014.85 1014.61 1014.37 1014.16 1013.97 1013.83 1013.73 1013.67 1013.66 1013.69
1009.72 1010.22 1010.74 1011.23 1011.63 1011.90 1012.03 1012.01 1011.88 1011.67 1011.45 1011.25 1011.12 1011.08 1011.14 1011.29 1011.53 1011.83 1012.17 1012.53 1012.90 1013.28 1013.64 1013.99 1014.32 1014.60 1014.84 1015.02 1015.13 1015.17 1015.15 1015.07 1014.94 1014.77 1014.57 1014.35 1014.13 1013.92 1013.71 1013.53 1013.39 1013.29 1013.24
1009.41 1009.96 1010.52 1011.05 1011.48 1011.78 1011.93 1011.94 1011.83 1011.65 1011.43 1011.25 1011.13 1011.11 1011.20 1011.38 1011.64 1011.97 1012.32 1012.69 1013.05 1013.39 1013.70 1013.98 1014.22 1014.43 1014.59 1014.72 1014.81 1014.85 1014.86 1014.84 1014.77 1014.67 1014.54 1014.37 1014.17 1013.95 1013.71 1013.48 1013.27 1013.09 1012.97
1009.34 1009.93 1010.53 1011.07 1011.51 1011.83 1011.99 1012.00 1011.90 1011.73 1011.53 1011.36 1011.25 1011.25 1011.35 1011.55 1011.83 1012.17 1012.53 1012.89 1013.23 1013.52 1013.77 1013.97 1014.13 1014.24 1014.33 1014.40 1014.45 1014.50 1014.53 1014.56 1014.56 1014.53 1014.47 1014.36 1014.21 1014.00 1013.76 1013.51 1013.25 1013.02 1012.85
1009.51 1010.11 1010.70 1011.24 1011.67 1011.96 1012.11 1012.12 1012.02 1011.85 1011.65 1011.49 1011.40 1011.40 1011.50 1011.71 1011.99 1012.33 1012.68 1013.02 1013.33 1013.58 1013.77 1013.89 1013.97 1014.00 1014.02 1014.03 1014.04 1014.08 1014.13 1014.19 1014.25 1014.30 1014.30 1014.26 1014.16 1014.00 1013.78 1013.53 1013.26 1013.01 1012.79
1009.85 1010.42 1010.98 1011.47 1011.85 1012.10 1012.22 1012.21 1012.09 1011.92 1011.73 1011.57 1011.48 1011.48 1011.58 1011.77 1012.05 1012.37 1012.70 1013.01 1013.28 1013.49 1013.62 1013.69 1013.70 1013.67 1013.63 1013.59 1013.57 1013.59 1013.65 1013.73 1013.83 1013.93 1013.99 1014.01 1013.96 1013.85 1013.67 1013.44 1013.19 1012.94 1012.72
1010.29 1010.79 1011.27 1011.68 1011.99 1012.17 1012.24 1012.20 1012.07 1011.89 1011.70 1011.55 1011.46 1011.45 1011.54 1011.72 1011.97 1012.26 1012.57 1012.85 1013.08 1013.25 1013.34 1013.37 1013.34 1013.27 1013.18 1013.11 1013.07 1013.07 1013.11 1013.20 1013.31 1013.43 1013.53 1013.58 1013.58 1013.51 1013.38 1013.20 1012.98 1012.76 1012.56
1010.76 1011.16 1011.52 1011.82 1012.03 1012.14 1012.15 1012.07 1011.93 1011.75 1011.58 1011.43 1011.35 1011.34 1011.42 1011.58 1011.79 1012.05 1012.31 1012.56 1012.76 1012.90 1012.97 1012.98 1012.93 1012.84 1012.74 1012.65 1012.58 1012.56 1012.59 1012.65 1012.75 1012.86 1012.96 1013.03 1013.04 1013.01 1012.91 1012.78 1012.61 1012.44 1012.28
1011.21 1011.47 1011.70 1011.88 1011.98 1012.01 1011.97 1011.87 1011.73 1011.57 1011.42 1011.30 1011.23 1011.23 1011.30 1011.43 1011.61 1011.82 1012.04 1012.25 1012.43 1012.55 1012.61 1012.61 1012.57 1012.48 1012.38 1012.28 1012.20 1012.15 1012.14 1012.17 1012.23 1012.30 1012.37 1012.42 1012.43 1012.41 1012.34 1012.25 1012.13 1012.01 1011.90
1011.62 1011.75 1011.84 1011.89 1011.90 1011.86 1011.79 1011.68 1011.56 1011.44 1011.33 1011.25 1011.21 1011.21 1011.27 1011.38 1011.52 1011.69 1011.87 1012.04 1012.18 1012.28 1012.34 1012.35 1012.32 1012.25 1012.16 1012.06 1011.97 1011.89 1011.84 1011.82 1011.82 1011.83 1011.85 1011.85 1011.85 1011.81 1011.76 1011.70 1011.62 1011.56 1011.50
1011.99 1011.99 1011.96 1011.92 1011.85 1011.77 1011.69 1011.60 1011.52 1011.45 1011.40 1011.37 1011.37 1011.39 1011.45 1011.53 1011.63 1011.75 1011.88 1012.00 1012.11 1012.19 1012.24 1012.26 1012.24 1012.19 1012.11 1012.02 1011.92 1011.82 1011.73 1011.65 1011.59 1011.53 1011.48 1011.43 1011.37 1011.32 1011.27 1011.22 1011.18 1011.15 1011.15
1012.31 1012.21 1012.10 1011.99 1011.89 1011.80 1011.73 1011.69 1011.67 1011.67 1011.69 1011.72 1011.76 1011.81 1011.86 1011.92 1011.98 1012.05 1012.12 1012.18 1012.25 1012.30 1012.33 1012.34 1012.33 1012.29 1012.23 1012.14 1012.04 1011.92 1011.80 1011.67 1011.54 1011.41 1011.29 1011.17 1011.07 1010.98 1010.92 1010.87 1010.85 1010.86 1010.89
1012.57 1012.42 1012.26 1012.13 1012.03 1011.96 1011.94 1011.97 1012.02 1012.10 1012.20 1012.29 1012.37 1012.44 1012.49 1012.52 1012.54 1012.55 1012.56 1012.56 1012.56 1012.57 1012.57 1012.57 1012.55 1012.52 1012.46 1012.38 1012.27 1012.14 1011.98 1011.81 1011.63 1011.45 1011.26 1011.09 1010.94 1010.82 1010.73 1010.69 1010.67 1010.69 1010.75
1012.76 1012.59 1012.44 1012.32 1012.25 1012.24 1012.28 1012.38 1012.51 1012.67 1012.84 1012.99 1013.11 1013.20 1013.24 1013.25 1013.22 1013.17 1013.10 1013.04 1012.97 1012.92 1012.88 1012.85 1012.81 1012.77 1012.71 1012.64 1012.53 1012.39 1012.22 1012.02 1011.81 1011.58 1011.35 1011.14 1010.95 1010.80 1010.69 1010.63 1010.61 1010.64 1010.70
1012.84 1012.69 1012.58 1012.50 1012.49 1012.54 1012.66 1012.83 1013.04 1013.26 1013.49 1013.68 1013.84 1013.93 1013.97 1013.95 1013.88 1013.77 1013.64 1013.51 1013.38 1013.26 1013.17 1013.10 1013.04 1012.98 1012.92 1012.84 1012.74 1012.60 1012.43 1012.23 1012.00 1011.75 1011.49 1011.26 1011.04 1010.87 1010.74 1010.66 1010.64 1010.65 1010.71
1012.79 1012.69 1012.63 1012.62 1012.67 1012.79 1012.97 1013.20 1013.46 1013.74 1014.00 1014.23 1014.40 1014.50 1014.53 1014.49 1014.39 1014.24 1014.05 1013.86 1013.67 1013.51 1013.36 1013.25 1013.16 1013.09 1013.03 1012.95 1012.86 1012.73 1012.57 1012.38 1012.15 1011.90 1011.64 1011.39 1011.16 1010.97 1010.82 1010.73 1010.69 1010.69 1010.73
1012.62 1012.58 1012.57 1012.62 1012.73 1012.90 1013.12 1013.39 1013.69 1014.00 1014.28 1014.53 1014.71 1014.82 1014.84 1014.79 1014.67 1014.49 1014.27 1014.04 1013.81 1013.61 1013.43 1013.29 1013.18 1013.10 1013.03 1012.97 1012.89 1012.79 1012.65 1012.47 1012.26 1012.02 1011.77 1011.51 1011.28 1011.07 1010.91 1010.80 1010.74 1010.72 1010.73
1012.34 1012.35 1012.40 1012.49 1012.64 1012.84 1013.09 1013.38 1013.69 1014.00 1014.29 1014.54 1014.73 1014.84 1014.87 1014.82 1014.69 1014.51 1014.28 1014.04 1013.80 1013.57 1013.38 1013.23 1013.11 1013.03 1012.98 1012.93 1012.87 1012.79 1012.68 1012.53 1012.34 1012.12 1011.88 1011.63 1011.39 1011.17 1011.00 1010.86 1010.78 1010.74 1010.73
1012.01 1012.05 1012.13 1012.25 1012.41 1012.63 1012.88 1013.16 1013.47 1013.77 1014.05 1014.30 1014.49 1014.61 1014.65 1014.62 1014.51 1014.34 1014.13 1013.90 1013.67 1013.45 1013.26 1013.12 1013.01 1012.95 1012.91 1012.89 1012.86 1012.81 1012.73 1012.60 1012.44 1012.23 1012.00 1011.75 1011.51 1011.28 1011.09 1010.93 1010.82 1010.75 1010.72
1011.69 1011.74 1011.83 1011.96 1012.12 1012.32 1012.56 1012.83 1013.11 1013.39 1013.67 1013.91 1014.10 1014.23 1014.30 1014.29 1014.21 1014.08 1013.90 1013.69 1013.49 1013.30 1013.14 1013.01 1012.93 1012.89 1012.88 1012.89 1012.89 1012.87 1012.81 1012.72 1012.57 1012.38 1012.15 1011.90 1011.65 1011.41 1011.19 1011.01 1010.88 1010.78 1010.72
1011.43 1011.48 1011.57 1011.68 1011.83 1012.01 1012.22 1012.46 1012.72 1012.98 1013.24 1013.48 1013.67 1013.82 1013.90 1013.93 1013.88 1013.79 1013.65 1013.49 1013.32 1013.16 1013.04 1012.95 1012.90 1012.89 1012.91 1012.94 1012.97 1012.98 1012.95 1012.87 1012.74 1012.56 1012.33 1012.07 1011.80 1011.54 1011.30 1011.09 1010.93 1010.81 1010.74
1011.29 1011.33 1011.39 1011.49 1011.61 1011.76 1011.94 1012.16 1012.39 1012.63 1012.88 1013.11 1013.30 1013.46 1013.56 1013.61 1013.60 1013.53 1013.44 1013.31 1013.18 1013.07 1012.97 1012.92 1012.91 1012.93 1012.98 1013.04 1013.10 1013.13 1013.12 1013.05 1012.93 1012.74 1012.50 1012.23 1011.94 1011.66 1011.39 1011.16 1010.97 1010.83 1010.73
1011.29 1011.30 1011.34 1011.41 1011.50 1011.63 1011.78 1011.97 1012.18 1012.40 1012.63 1012.85 1013.05 1013.20 1013.31 1013.37 1013.38 1013.34 1013.26 1013.16 1013.06 1012.98 1012.92 1012.90 1012.92 1012.97 1013.05 1013.13 1013.21 1013.26 1013.26 1013.20 1013.08 1012.89 1012.64 1012.35 1012.03 1011.72 1011.42 1011.16 1010.94 1010.77 1010.65
1011.40 1011.38 1011.39 1011.43 1011.50 1011.60 1011.73 1011.89 1012.08 1012.29 1012.50 1012.70 1012.88 1013.03 1013.13 1013.18 1013.19 1013.15 1013.08 1013.00 1012.91 1012.85 1012.81 1012.82 1012.86 1012.94 1013.05 1013.16 1013.26 1013.32 1013.33 1013.28 1013.15 1012.95 1012.68 1012.37 1012.03 1011.68 1011.35 1011.05 1010.80 1010.61 1010.47
1011.57 1011.52 1011.50 1011.51 1011.56 1011.63 1011.74 1011.88 1012.05 1012.23 1012.41 1012.59 1012.75 1012.87 1012.94 1012.98 1012.96 1012.91 1012.84 1012.75 1012.68 1012.62 1012.60 1012.63 1012.70 1012.81 1012.94 1013.07 1013.19 1013.28 1013.30 1013.25 1013.12 1012.91 1012.63 1012.29 1011.93 1011.54 1011.18 1010.84 1010.55 1010.32 1010.15
1011.71 1011.64 1011.59 1011.58 1011.60 1011.65 1011.74 1011.86 1012.00 1012.15 1012.30 1012.45 1012.56 1012.64 1012.68 1012.68 1012.64 1012.56 1012.47 1012.38 1012.30 1012.26 1012.26 1012.31 1012.40 1012.54 1012.71 1012.88 1013.02 1013.13 1013.17 1013.13 1013.01 1012.79 1012.50 1012.14 1011.74 1011.33 1010.92 1010.54 1010.21 1009.93 1009.72
Thickness
5801 5798 5794 5790 5787 5783 5779 5777 5774 5771 5768 5765 5763 5760 5757 5754 5752 5750 5747 5745 5742 5740 5738 5737 5734 5733 5732 5731 5730 5729 5726 5723 5716 5716 5717 5717 5715 5713 5710 5708 5706 5703 5701
5802 5798 5793 5789 5786 5782 5779 5777 5774 5771 5768 5765 5762 5759 5756 5753 5750 5747 5744 5742 5739 5736 5735 5733 5730 5730 5728 5727 5725 5724 5722 5720 5715 5710 5710 5710 5708 5707 5705 5702 5701 5699 5696
5801 5796 5791 5788 5784 5781 5778 5776 5774 5770 5767 5764 5761 5757 5754 5751 5748 5745 5742 5739 5737 5735 5732 5729 5727 5725 5723 5722 5721 5719 5717 5716 5713 5708 5705 5704 5703 5701 5698 5696 5695 5692 5690
5799 5794 5789 5787 5784 5781 5778 5775 5771 5768 5764 5761 5758 5755 5752 5748 5745 5743 5740 5737 5734 5732 5729 5727 5724 5721 5719 5718 5716 5714 5712 5710 5708 5704 5701 5698 5695 5694 5691 5688 5685 5684 5682
5796 5791 5787 5785 5782 5779 5775 5771 5768 5765 5761 5758 5754 5751 5748 5745 5742 5739 5736 5734 5731 5728 5726 5724 5721 5718 5716 5713 5712 5709 5706 5703 5701 5698 5695 5691 5688 5685 5683 5683 5679 5676 5675
5791 5787 5785 5781 5777 5774 5771 5768 5763 5760 5757 5754 5750 5746 5744 5742 5738 5735 5732 5730 5727 5724 5721 5720 5717 5714 5711 5708 5706 5703 5701 5697 5693 5690 5688 5685 5682 5681 5679 5677 5673 5669 5665
5785 5782 5780 5776 5771 5769 5767 5763 5759 5755 5752 5749 5745 5742 5738 5735 5732 5730 5727 5725 5723 5720 5717 5714 5713 5711 5706 5703 5700 5697 5694 5692 5689 5686 5682 5680 5678 5677 5673 5670 5667 5663 5660
5778 5776 5774 5770 5766 5763 5760 5756 5754 5751 5747 5743 5740 5737 5733 5729 5725 5723 5720 5720 5718 5715 5712 5709 5705 5702 5700 5697 5695 5693 5689 5686 5684 5682 5679 5676 5674 5672 5669 5665 5662 5658 5655
5772 5770 5769 5766 5761 5758 5754 5751 5748 5745 5742 5739 5736 5732 5728 5723 5720 5717 5713 5713 5711 5709 5707 5704 5700 5696 5693 5691 5689 5686 5683 5680 5677 5675 5673 5670 5668 5665 5661 5657 5653 5650 5646
5766 5765 5763 5761 5757 5753 5749 5746 5743 5740 5736 5733 5729 5727 5723 5719 5715 5712 5707 5707 5705 5703 5700 5697 5694 5690 5687 5684 5682 5679 5675 5673 5671 5668 5665 5663 5661 5658 5655 5651 5647 5643 5640
5762 5760 5758 5755 5751 5748 5744 5740 5737 5733 5729 5725 5722 5719 5717 5713 5709 5705 5701 5699 5699 5697 5694 5691 5687 5683 5680 5677 5674 5672 5669 5666 5664 5662 5659 5657 5655 5652 5649 5645 5642 5638 5634
5754 5752 5750 5748 5744 5741 5737 5733 5730 5727 5722 5718 5715 5712 5710 5707 5702 5698 5694 5692 5690 5689 5687 5684 5679 5675 5672 5669 5667 5665 5662 5659 5658 5656 5653 5650 5647 5645 5643 5640 5636 5633 5630
5745 5743 5741 5740 5736 5733 5729 5725 5722 5719 5717 5714 5710 5707 5704 5700 5696 5691 5687 5684 5682 5680 5678 5674 5670 5667 5664 5662 5659 5657 5654 5652 5651 5648 5645 5643 5642 5639 5637 5633 5630 5626 5623
5735 5733 5731 5729 5725 5723 5721 5718 5715 5712 5710 5708 5705 5702 5698 5694 5689 5684 5681 5677 5673 5670 5668 5665 5662 5659 5657 5654 5652 5649 5647 5645 5643 5641 5639 5637 5635 5632 5629 5626 5622 5619 5615
5725 5723 5721 5719 5716 5713 5709 5706 5705 5702 5701 5699 5697 5695 5690 5686 5681 5677 5674 5671 5668 5664 5660 5658 5655 5652 5650 5648 5645 5643 5640 5637 5634 5633 5630 5628 5625 5623 5620 5617 5614 5611 5607
5713 5712 5711 5709 5706 5703 5698 5692 5690 5690 5688 5686 5683 5680 5679 5675 5672 5668 5665 5662 5659 5655 5652 5651 5648 5645 5642 5640 5637 5634 5631 5629 5626 5624 5621 5618 5616 5613 5610 5608 5605 5602 5598
5704 5703 5702 5700 5696 5693 5689 5684 5680 5676 5675 5674 5672 5669 5666 5663 5661 5658 5656 5653 5649 5645 5643 5642 5639 5637 5634 5631 5629 5626 5623 5620 5617 5615 5611 5608 5606 5603 5601 5597 5594 5592 5590
5695 5695 5693 5691 5688 5685 5682 5679 5676 5672 5668 5665 5661 5658 5655 5652 5650 5648 5645 5642 5639 5636 5635 5632 5630 5627 5624 5622 5620 5617 5614 5611 5608 5605 5601 5598 5596 5593 5590 5587 5585 5582 5581
5684 5684 5683 5681 5678 5676 5673 5672 5670 5666 5662 5658 5653 5647 5643 5640 5638 5635 5633 5633 5631 5627 5625 5622 5620 5617 5614 5612 5609 5606 5604 5601 5598 5594 5591 5588 5586 5583 5580 5578 5576 5573 5570
5673 5672 5671 5670 5668 5665 5663 5663 5660 5656 5652 5648 5646 5641 5634 5631 5629 5625 5623 5622 5620 5617 5615 5613 5610 5607 5604 5601 5598 5595 5593 5590 5587 5584 5581 5578 5576 5573 5571 5568 5566 5564 5562
5663 5662 5660 5659 5657 5654 5653 5651 5649 5645 5642 5638 5636 5632 5627 5625 5623 5619 5615 5612 5610 5608 5605 5603 5600 5597 5594 5590 5587 5584 5582 5579 5576 5574 5571 5569 5566 5564 5562 5560 5558 5556 5555
5652 5652 5650 5648 5646 5644 5642 5640 5637 5634 5631 5628 5624 5621 5616 5616 5613 5609 5605 5603 5601 5599 5596 5593 5590 5586 5583 5580 5577 5574 5571 5568 5565 5562 5560 5559 5557 5555 5553 5551 5549 5548 5546
5643 5643 5641 5639 5637 5633 5631 5629 5626 5624 5621 5617 5614 5611 5607 5605 5603 5600 5597 5594 5591 5589 5586 5583 5579 5575 5572 5569 5567 5563 5560 5556 5554 5551 5549 5548 5547 5545 5543 5542 5540 5539 5537
5634 5633 5631 5629 5626 5623 5621 5618 5616 5614 5611 5607 5605 5603 5599 5597 5594 5591 5589 5586 5583 5580 5576 5573 5569 5566 5563 5560 5556 5553 5549 5546 5543 5541 5539 5537 5536 5535 5534 5532 5531 5530 5528
5624 5623 5621 5618 5615 5613 5611 5609 5606 5604 5601 5599 5596 5593 5590 5588 5585 5582 5579 5576 5573 5570 5566 5563 5560 5556 5553 5549 5546 5542 5539 5536 5533 5531 5529 5528 5527 5526 5524 5523 5521 5519 5518
5615 5613 5611 5609 5607 5605 5602 5599 5596 5594 5592 5590 5587 5584 5581 5578 5576 5572 5569 5566 5563 5560 5556 5553 5550 5547 5543 5539 5535 5531 5528 5526 5523 5521 5518 5518 5518 5517 5515 5513 5511 5510 5509